This is the latest recevied weather packets stored in our database for station/object N3FAA. If no packets are shown the sender has not sent any weather packets the latest 10 day(s).
| Time | Temp. | Humidity | Pressure | Rain* | Wind** | Luminosity | Snow |
|---|---|---|---|---|---|---|---|
| 1777354825 | 7.22° C | 72% | 1014.3 hPa | 0 mm | - | 0 W/m² | - |
| 1777354521 | 8.33° C | 68% | 1014.3 hPa | 0 mm | - | 0 W/m² | - |
| 1777354217 | 8.89° C | 67% | 1014.1 hPa | 0 mm | - | 0 W/m² | - |
| 1777353914 | 8.89° C | 67% | 1014 hPa | 0 mm | - | 0 W/m² | - |
| 1777353611 | 8.89° C | 67% | 1014.1 hPa | 0 mm | - | 0 W/m² | - |
| 1777353309 | 8.89° C | 67% | 1014 hPa | 0 mm | - | 0 W/m² | - |
| 1777353007 | 9.44° C | 65% | 1014 hPa | 0 mm | - | 0 W/m² | - |
| 1777352705 | 9.44° C | 64% | 1014 hPa | 0 mm | - | 0 W/m² | - |
| 1777352403 | 9.44° C | 64% | 1013.8 hPa | 0 mm | - | 0 W/m² | - |
| 1777352099 | 9.44° C | 65% | 1013.9 hPa | 0 mm | - | 0 W/m² | - |
| 1777351796 | 9.44° C | 65% | 1013.8 hPa | 0 mm | - | 0 W/m² | - |
| 1777351494 | 9.44° C | 64% | 1014 hPa | 0 mm | - | 0 W/m² | - |
| 1777351193 | 9.44° C | 65% | 1014.1 hPa | 0 mm | - | 0 W/m² | - |
| 1777350892 | 9.44° C | 66% | 1013.8 hPa | 0 mm | - | 0 W/m² | - |
| 1777350591 | 9.44° C | 66% | 1013.9 hPa | 0 mm | - | 0 W/m² | - |
| 1777350289 | 10° C | 67% | 1013.6 hPa | 0 mm | - | 0 W/m² | - |
| 1777349985 | 10° C | 66% | 1013.4 hPa | 0 mm | - | 0 W/m² | - |
| 1777349683 | 10° C | 66% | 1013.6 hPa | 0 mm | - | 0 W/m² | - |
| 1777349381 | 10.56° C | 64% | 1013.6 hPa | 0 mm | - | 0 W/m² | - |
| 1777349079 | 10.56° C | 62% | 1013.6 hPa | 0 mm | - | 0 W/m² | - |
| 1777348775 | 10.56° C | 59% | 1013.4 hPa | 0 mm | - | 0 W/m² | - |
| 1777348474 | 11.11° C | 56% | 1013.2 hPa | 0 mm | - | 0 W/m² | - |
| 1777348171 | 11.11° C | 56% | 1013.1 hPa | 0 mm | - | 0 W/m² | - |
| 1777347869 | 11.11° C | 56% | 1013.2 hPa | 0 mm | - | 0 W/m² | - |
| 1777347567 | 11.11° C | 56% | 1013.1 hPa | 0 mm | - | 0 W/m² | - |
* Rain latest hour (hover to see other rain measurements)
** Current wind speed in m/s (hover to see current wind gust speed)